Theta_e
314 313 312 310 309 307 308 308 307 306 306 306 306 306 307 308 307 306 305 305 305 305 305 305 305 304 304 303 303 304 306 308 309 309 313 316 318 319 321 322 323 323
313 313 312 310 309 308 308 308 306 306 306 306 306 306 306 306 306 306 305 305 304 304 304 305 305 305 304 304 304 304 305 307 308 308 310 314 317 318 318 319 320 322
312 312 311 310 309 308 308 307 306 306 306 306 306 305 306 305 306 305 305 304 304 303 304 305 306 306 306 306 305 304 305 307 309 311 313 315 317 318 318 317 318 320
311 312 311 309 308 307 307 306 306 306 306 306 306 306 305 305 305 304 304 304 304 304 305 307 307 308 309 309 308 306 305 306 309 312 314 315 316 317 319 319 318 319
311 311 311 310 308 307 307 306 306 306 306 306 306 305 305 304 304 303 303 303 303 303 304 305 307 308 309 309 309 308 307 305 307 310 313 314 314 315 318 320 320 320
311 311 310 309 308 307 307 306 306 306 306 306 305 305 304 304 303 303 303 303 303 302 302 303 306 307 308 308 308 309 308 307 306 307 310 312 313 315 316 319 320 321
310 311 310 309 308 308 307 307 307 306 306 305 305 304 304 303 303 303 303 303 303 303 302 302 304 306 307 307 307 308 308 308 307 306 307 309 312 314 315 317 319 320
310 311 310 309 308 307 307 306 306 306 305 305 304 304 304 303 304 304 304 304 303 303 303 303 304 305 306 306 306 307 307 308 307 307 306 307 309 311 313 315 317 319
311 311 310 309 308 307 307 306 306 306 305 304 304 304 304 304 304 304 304 304 304 304 304 305 305 305 305 306 306 306 307 308 308 307 306 306 306 307 309 312 314 316
311 311 311 310 309 307 307 306 306 305 305 304 304 304 305 305 305 305 304 304 303 304 305 305 305 305 305 305 305 306 307 308 308 308 307 306 306 306 306 308 310 313
312 312 311 310 309 308 307 306 306 305 304 304 305 305 305 305 305 305 304 304 304 304 304 304 305 305 305 304 305 306 307 307 307 307 308 308 307 307 307 307 308 309
313 312 311 311 310 308 307 307 306 305 305 305 305 305 305 305 304 304 304 304 304 304 303 303 303 303 304 304 305 306 307 306 306 306 307 308 308 308 308 308 308 308
313 312 311 311 310 309 308 307 306 305 305 305 305 305 304 303 303 303 303 303 303 303 303 303 303 303 304 305 306 306 306 306 306 306 306 307 308 308 308 308 308 308
313 312 311 310 310 309 308 307 306 305 305 305 304 303 303 302 302 303 303 303 303 303 303 303 303 303 303 304 306 306 306 305 305 305 305 305 306 307 308 308 309 309
313 312 311 311 310 309 307 306 306 305 305 304 303 303 303 303 303 303 303 303 303 303 303 303 303 303 303 304 305 305 304 304 304 304 304 304 305 305 306 307 307 308
312 311 310 310 309 308 307 306 306 306 305 304 304 303 303 303 303 303 303 303 303 302 302 302 302 302 303 303 303 304 303 303 303 303 303 303 304 304 304 305 305 306
310 310 310 309 308 307 307 307 306 305 305 304 304 303 303 303 303 303 302 302 302 302 301 301 301 301 301 302 302 302 302 302 302 302 301 301 302 303 303 304 304 305
310 310 310 309 308 307 307 306 306 305 305 304 304 303 303 303 303 302 302 301 301 301 300 300 300 300 300 300 301 301 301 301 301 301 301 301 301 301 301 302 303 304
310 310 309 308 308 307 306 306 305 305 304 304 304 303 303 302 302 302 301 301 300 300 300 299 299 299 299 299 299 299 300 300 300 300 300 300 300 300 300 301 301 302
310 309 308 307 307 306 305 305 305 304 304 304 303 303 303 302 302 301 300 300 300 299 299 299 298 298 298 298 298 298 298 298 298 299 299 299 299 300 300 300 301 301
309 308 307 307 306 305 305 305 305 304 303 303 303 302 302 302 301 300 300 299 299 299 299 299 298 298 297 297 297 297 297 297 297 297 297 298 298 298 299 299 299 300
307 307 306 306 305 305 305 305 305 304 303 303 302 302 301 301 300 300 299 299 299 299 299 298 298 297 297 297 297 297 297 296 297 296 296 296 297 297 298 298 298 299
306 306 306 306 305 305 305 305 304 304 303 302 301 301 301 300 300 299 299 299 299 298 298 298 297 297 297 296 296 296 296 296 296 296 295 295 296 297 297 298 298 298
306 305 305 305 305 305 304 304 304 303 302 301 300 300 300 300 299 298 298 298 298 298 297 297 296 296 296 295 295 295 295 295 295 295 295 295 295 296 297 297 298 298
304 304 304 304 304 304 304 303 303 302 301 300 300 300 299 299 298 298 298 298 297 297 296 296 295 295 295 295 295 295 295 295 295 295 295 295 295 295 296 297 297 297
303 303 303 303 303 303 302 302 301 301 300 299 299 299 298 298 298 297 297 297 297 296 296 295 294 294 294 294 294 294 294 294 294 294 294 295 295 295 296 296 296 297
Wind_Speed
18 18 18 17 16 14 14 13 11 11 11 11 11 11 11 13 15 17 18 19 21 22 23 24 24 23 22 21 20 21 22 22 23 23 23 23 25 25 26 27 26 27
18 18 18 18 17 15 16 15 13 12 12 13 13 13 13 14 16 18 20 22 23 25 26 26 25 23 20 19 20 22 23 23 23 23 23 23 24 26 27 28 28 27
17 18 19 19 17 16 17 16 14 13 13 14 14 15 15 16 17 19 21 23 25 25 25 23 22 20 17 17 19 23 24 23 22 22 22 22 23 25 26 27 29 28
17 18 19 19 18 18 18 17 15 15 14 15 15 15 16 17 19 21 22 24 24 23 22 21 20 17 16 17 18 22 24 24 23 21 22 24 25 24 23 23 26 28
16 17 18 19 19 19 19 18 17 16 16 16 16 16 17 19 21 22 23 23 24 23 22 22 20 17 16 18 19 20 22 25 25 24 24 24 25 25 23 21 22 24
16 16 17 19 19 20 20 19 18 18 17 17 17 18 20 21 22 22 23 24 24 25 24 23 23 20 18 18 19 20 21 23 25 26 26 24 23 24 23 22 21 22
16 16 17 18 19 20 20 19 19 18 18 18 18 19 20 21 22 23 23 24 25 26 26 25 24 22 19 17 18 21 22 22 24 25 26 26 25 24 24 24 23 22
17 17 17 18 19 20 19 19 19 18 18 18 19 20 21 21 22 22 23 24 25 26 26 25 23 22 19 17 18 20 22 24 24 25 25 26 27 28 29 29 27 26
18 18 18 19 20 20 19 18 17 17 17 18 19 20 20 20 21 22 22 24 25 25 24 22 22 22 20 19 19 20 23 25 26 26 26 26 28 30 33 33 32 31
19 19 19 20 20 20 18 17 16 16 16 17 18 18 19 19 20 22 23 24 25 24 22 21 21 22 22 21 22 23 25 26 27 28 28 28 29 30 32 34 35 35
19 19 19 19 19 18 17 15 15 15 15 16 17 18 18 20 21 22 23 23 23 24 24 24 23 22 23 24 25 26 27 27 27 28 29 30 31 31 32 33 35 37
19 19 19 18 18 17 15 15 14 14 15 15 16 17 19 21 23 24 24 24 24 25 26 26 25 24 25 28 29 28 29 29 29 30 31 32 32 32 32 33 34 36
19 19 18 17 16 15 14 14 14 14 14 15 16 18 22 25 26 26 25 25 25 24 23 22 23 24 26 28 29 29 29 30 30 30 30 32 33 33 33 33 34 35
18 17 17 15 15 15 14 14 13 13 14 16 19 22 25 26 26 24 23 23 23 21 20 20 21 22 23 25 26 27 26 27 28 29 29 30 31 33 35 35 35 36
17 16 16 15 15 15 14 13 13 14 16 20 23 25 25 24 23 21 22 22 21 20 21 22 22 23 24 25 25 25 24 24 25 27 27 27 29 30 32 34 35 36
17 17 17 16 15 14 12 12 13 15 18 22 24 23 23 22 20 19 20 21 20 20 21 22 23 24 24 24 25 26 27 28 29 30 30 30 31 31 31 32 32 34
16 16 15 14 13 11 11 12 14 17 19 22 22 20 19 19 19 19 19 19 20 21 22 23 24 24 24 24 25 27 29 32 35 36 37 37 37 36 36 36 35 34
15 15 13 12 10 10 11 13 15 17 19 19 19 17 18 19 19 20 20 20 22 23 23 24 25 26 26 27 27 28 30 32 35 37 39 40 40 39 39 39 40 40
15 14 12 10 10 11 12 14 16 17 17 17 16 17 19 20 20 20 21 22 24 24 25 26 26 27 28 28 28 29 30 33 36 38 40 41 42 42 42 41 41 42
14 12 10 10 10 11 13 14 15 16 15 15 15 17 20 22 23 23 23 23 25 26 28 28 28 28 29 29 29 30 31 33 36 39 42 44 45 45 44 44 42 40
12 10 8 8 10 12 13 14 15 15 14 14 16 19 22 25 25 25 24 25 26 28 29 31 31 30 29 29 31 32 33 34 36 38 41 45 47 49 49 48 47 44
8 8 8 8 11 12 13 13 14 14 14 15 19 22 25 25 24 24 25 26 27 28 29 31 32 31 31 31 32 33 34 36 37 39 41 44 46 47 46 46 47 47
7 7 8 10 11 11 12 13 13 14 15 17 21 22 22 22 23 25 27 27 27 28 30 32 33 33 33 33 33 34 35 37 39 40 42 44 45 44 42 41 42 43
7 8 9 10 11 11 11 12 14 15 16 17 20 22 22 22 24 26 27 26 27 28 30 31 33 34 33 33 32 32 34 37 39 41 42 44 44 44 43 42 42 41
7 8 9 9 10 10 11 13 14 16 16 18 20 22 24 24 24 25 26 26 27 29 29 31 33 33 32 31 32 33 36 39 40 42 44 44 43 44 44 43 43 42
6 7 8 8 9 10 12 14 15 15 16 19 21 23 24 24 23 25 28 29 28 29 29 30 31 32 32 32 33 34 34 36 38 41 43 43 42 43 44 44 44 43
Wind_Direction
251 251 249 247 246 245 249 257 264 273 282 290 292 291 288 287 291 298 305 308 310 309 307 304 300 296 292 287 280 274 270 266 263 259 254 249 247 250 255 258 257 256
249 248 247 246 243 238 244 254 263 271 279 286 291 292 290 289 291 297 304 308 310 311 309 304 296 289 285 281 272 264 264 266 264 259 255 252 250 250 250 251 253 256
249 246 242 241 239 237 244 254 262 268 276 282 287 290 291 292 294 298 303 307 310 313 310 303 294 286 282 280 272 262 257 259 261 258 252 249 250 252 251 252 252 252
249 245 242 239 237 239 247 256 262 268 274 279 284 289 291 292 294 299 303 307 310 310 305 296 288 282 279 277 273 267 258 253 253 254 252 247 245 247 249 254 257 254
251 247 243 240 238 241 249 256 261 267 273 278 283 288 291 295 298 303 306 307 307 307 303 293 283 274 271 269 269 270 267 259 252 249 251 251 248 247 244 247 255 256
249 247 244 242 241 243 249 255 260 267 273 278 285 291 296 301 304 307 308 307 306 306 306 299 286 274 267 266 265 266 268 267 260 252 249 250 251 250 245 243 251 254
246 246 245 243 244 247 250 255 261 268 275 282 291 298 303 306 308 311 310 308 305 304 307 304 293 280 270 266 266 264 265 268 267 261 253 248 248 247 242 238 242 246
243 243 243 242 245 250 253 258 265 273 281 290 298 304 307 309 310 311 308 305 304 302 303 303 295 286 276 269 267 266 264 265 266 267 261 253 249 247 243 237 234 235
235 237 238 241 244 250 256 262 268 279 288 296 303 306 306 305 305 304 301 300 301 299 296 295 291 286 280 273 270 269 269 269 268 268 267 262 255 250 246 243 239 234
229 230 233 239 244 249 256 264 272 282 289 296 301 302 300 299 298 297 296 296 297 295 289 285 283 279 274 271 271 272 274 274 272 270 268 266 263 258 252 247 243 240
224 225 229 236 243 250 256 263 272 281 289 293 297 298 295 294 294 291 291 292 291 287 282 277 273 270 270 272 273 274 274 272 272 270 268 266 265 264 261 254 248 244
223 223 227 233 240 249 256 262 272 281 287 290 291 293 292 290 289 288 286 285 282 279 277 275 272 270 272 276 276 275 274 272 271 270 269 268 266 265 264 260 255 249
220 223 228 232 237 245 252 259 271 277 281 284 285 286 288 288 289 288 287 285 282 280 278 277 277 277 278 279 278 277 275 274 273 272 271 269 267 265 265 264 261 257
216 221 225 230 233 239 248 257 268 275 278 284 287 289 291 292 291 289 287 286 285 282 281 281 282 283 283 283 282 279 278 276 275 275 274 273 270 268 266 265 264 262
210 213 215 221 229 239 252 263 271 279 285 290 293 295 295 293 290 287 284 281 280 280 281 281 281 280 281 282 282 280 278 276 273 271 271 272 273 272 270 269 267 265
206 211 215 223 234 247 261 270 277 284 289 293 295 295 295 294 291 289 287 284 283 284 285 284 282 281 280 279 279 276 274 273 272 271 270 269 268 267 267 268 267 266
204 212 221 231 243 253 262 270 279 284 287 292 295 296 295 294 291 288 288 288 288 287 287 285 283 282 280 278 277 275 275 276 277 279 278 275 271 267 264 263 262 262
201 208 216 226 236 245 257 270 278 282 287 292 294 293 292 290 288 287 287 288 289 289 288 286 283 282 282 279 276 274 273 275 278 280 280 278 274 269 267 264 261 260
198 202 208 219 231 247 265 278 282 284 287 289 288 289 289 287 286 289 290 289 291 292 290 289 288 288 288 285 281 276 273 272 272 272 273 274 272 270 268 266 264 263
193 198 208 221 239 262 278 284 285 286 287 287 288 289 288 286 288 291 293 293 295 295 293 291 290 290 291 290 286 283 280 278 274 270 269 268 268 268 267 264 263 261
193 200 214 232 256 274 282 280 279 286 290 289 289 289 288 290 294 296 296 296 296 295 293 291 290 291 291 290 289 287 285 282 279 276 272 269 268 268 267 264 262 259
197 210 225 250 270 275 274 272 273 283 290 289 289 291 292 293 294 294 296 296 295 294 292 291 291 291 290 288 287 285 283 281 279 277 275 272 270 270 269 266 263 259
214 232 246 262 270 269 268 271 275 280 286 291 294 295 294 293 293 295 297 296 294 293 292 289 289 289 287 286 286 284 282 281 280 279 277 273 270 269 267 264 263 260
227 245 257 262 265 268 271 274 279 283 289 294 294 294 296 297 297 298 296 294 293 292 291 289 288 289 289 290 289 288 286 284 283 281 279 275 271 268 265 263 262 261
241 255 262 265 266 272 278 279 283 289 296 296 293 296 302 302 299 297 295 294 294 293 292 291 290 291 294 294 291 289 287 285 284 282 279 276 272 269 265 263 261 260
273 269 273 277 275 276 282 284 287 294 300 300 299 303 305 303 300 300 298 297 296 294 293 293 293 295 298 297 296 295 292 287 283 280 278 276 273 269 265 263 261 259